Flag for U.S.A. Weather past 2 weeks in Abilene, Texas, U.S.A.

Now
72 °F

Overcast.


Feels Like: 73 °F
Forecast: 70 / 96 °F
Wind: 9 mph from Southeast

Location: Abilene Regional Airport

Current Time: Aug 29, 2015 at 11:00:04 PM

Latest Report: Aug 29, 2015 at 9:52 PM


Visibility: 10 mi

Pressure: 29.96 "Hg (28.20 "Hg at 524m altitude)

Humidity: 78%

Dew point: 65 °F

Location of AbileneLocation

Historic Weather in Abilene — Graph

°F

Abilene temperature yesterday

Maximum temperature yesterday: 99 °F (at 4:52 PM)
Minimum temperature yesterday: 72 °F (at 5:52 AM)
Average temperature yesterday: 85 °F

Past Weeks' High & Low Weather Summary

 TemperatureHumidityPressure
High101 °F (Aug 25, 3:52 PM)93% (Aug 21, 3:52 AM)30.18 "Hg (Aug 21, 3:52 AM)
Low62 °F (Aug 20, 12:52 AM)16% (Aug 28, 4:52 PM)29.62 "Hg (Aug 18, 6:52 PM)
Average82 °F56%29.92 "Hg
* Reported Aug 14 9:52 PM — Aug 29 9:52 PM, Abilene, Weather by CustomWeather, © 2015

Note: Actual official high and low records may vary slightly from our data, if they occured in-between our weather recording intervals... More about our weather records

Advertising

Abilene weather history for previous 24 hours

 ConditionsComfort  
Time TempWeatherWind HumidityBarometerVisibility
9:52 PM
Sat, Aug 29
72 °FOvercast.9 mph78%29.96 "Hg10 mi
8:52 PM74 °FPartly sunny.7 mph74%29.98 "Hg10 mi
7:52 PM73 °FLight rain. Partly sunny.5 mph76%29.99 "Hg10 mi
6:52 PM74 °FScattered clouds.6 mph79%29.98 "Hg10 mi
5:52 PM76 °FLight rain. Overcast.5 mph60%29.99 "Hg7 mi
4:52 PM78 °FPartly sunny.10 mph60%30.00 "Hg10 mi
3:52 PM81 °FLight rain. Partly sunny.10 mph56%30.00 "Hg10 mi
2:52 PM88 °FPassing clouds.9 mph35%29.98 "Hg10 mi
1:52 PM88 °FPartly sunny.12 mph38%29.99 "Hg10 mi
12:52 PM89 °FSunny.8 mph36%29.99 "Hg10 mi
11:52 AM85 °FSunny.12 mph40%30.00 "Hg10 mi
10:52 AM85 °FSunny.14 mph40%29.99 "Hg10 mi
9:52 AM84 °FSunny.15 mph40%29.98 "Hg10 mi
8:52 AM80 °FSunny.12 mph45%29.97 "Hg10 mi
7:52 AM77 °FClear.14 mph47%29.96 "Hg10 mi
6:52 AM78 °FClear.12 mph45%29.94 "Hg10 mi
5:52 AM78 °FClear.7 mph45%29.93 "Hg10 mi
4:52 AM78 °FClear.6 mph45%29.93 "Hg10 mi
3:52 AM79 °FClear.7 mph44%29.93 "Hg10 mi
1:52 AM79 °FClear.13 mph44%29.92 "Hg10 mi
12:52 AM80 °FClear.15 mph45%29.91 "Hg10 mi
11:52 PM
Fri, Aug 28
82 °FClear.14 mph43%29.91 "Hg10 mi
Weather by CustomWeather, © 2015

See weather overviewHow to use our weather pages